| time (UTC) | temp F | wind direction | speed MPH | gust MPH | rain 1hr in | rain 24hr in | rain mn in | humidity % | barometer mb |
| 20260902123303 | 70 | 162 | 2.0 | 6.0 | 0.00 | 0.22 | 0.01 | 55 | 1018.6 |
| 20260902122803 | 71 | 199 | 4.0 | 9.0 | 0.00 | 0.22 | 0.01 | 54 | 1018.6 |
| 20260902122202 | 71 | 216 | 8.0 | 11.0 | 0.00 | 0.22 | 0.01 | 52 | 1018.6 |
| 20260902121602 | 71 | 192 | 5.0 | 8.0 | 0.00 | 0.22 | 0.01 | 53 | 1018.6 |
| 20260902121004 | 71 | 277 | 1.0 | 6.0 | 0.00 | 0.22 | 0.01 | 55 | 1018.6 |
| 20260902120505 | 70 | 246 | 5.0 | 8.0 | 0.00 | 0.22 | 0.01 | 55 | 1018.6 |
| 20260902120003 | 69 | 257 | 3.0 | 7.0 | 0.00 | 0.22 | 0.01 | 58 | 1019.0 |
| 20260902115403 | 69 | 245 | 6.0 | 7.0 | 0.00 | 0.22 | 0.01 | 57 | 1019.0 |
| 20260902114902 | 69 | 259 | 9.0 | 10.0 | 0.00 | 0.22 | 0.01 | 57 | 1019.0 |
| 20260902114403 | 69 | 234 | 3.0 | 5.0 | 0.00 | 0.22 | 0.01 | 57 | 1019.0 |
| 20260902113803 | 69 | 254 | 3.0 | 5.0 | 0.00 | 0.22 | 0.01 | 56 | 1019.0 |
| 20260902113202 | 69 | 219 | 2.0 | 6.0 | 0.00 | 0.22 | 0.01 | 58 | 1019.0 |
| 20260902112703 | 70 | 181 | 5.0 | 7.0 | 0.00 | 0.22 | 0.01 | 55 | 1019.0 |
| 20260902112203 | 69 | 168 | 2.0 | 5.0 | 0.00 | 0.22 | 0.01 | 55 | 1019.0 |
| 20260902111702 | 68 | 224 | 3.0 | 3.0 | 0.00 | 0.22 | 0.01 | 57 | 1019.3 |
| 20260902111203 | 69 | 244 | 5.0 | 8.0 | 0.00 | 0.22 | 0.01 | 56 | 1019.0 |
| 20260902110603 | 69 | 248 | 6.0 | 7.0 | 0.00 | 0.22 | 0.01 | 56 | 1019.3 |
| 20260902105603 | 68 | 225 | 5.0 | 9.0 | 0.00 | 0.22 | 0.01 | 54 | 1019.3 |
| 20260902105103 | 68 | 242 | 5.0 | 8.0 | 0.00 | 0.22 | 0.01 | 56 | 1019.6 |
| 20260902104603 | 68 | 236 | 5.0 | 6.0 | 0.00 | 0.22 | 0.01 | 59 | 1019.3 |
| 20260902104005 | 68 | 259 | 7.0 | 8.0 | 0.00 | 0.22 | 0.01 | 59 | 1019.6 |
| 20260902103403 | 68 | 257 | 6.0 | 8.0 | 0.00 | 0.22 | 0.01 | 57 | 1019.6 |
| 20260902102902 | 68 | 255 | 7.0 | 10.0 | 0.00 | 0.22 | 0.01 | 56 | 1019.6 |
| 20260902102403 | 67 | 237 | 7.0 | 9.0 | 0.00 | 0.22 | 0.01 | 60 | 1019.6 |
| 20260902101902 | 67 | 240 | 8.0 | 9.0 | 0.00 | 0.22 | 0.01 | 61 | 1019.6 |
| 20260902101303 | 67 | 228 | 5.0 | 8.0 | 0.00 | 0.22 | 0.01 | 59 | 1019.6 |
| 20260902100803 | 67 | 214 | 5.0 | 6.0 | 0.00 | 0.22 | 0.01 | 61 | 1019.6 |
| 20260902100302 | 67 | 233 | 7.0 | 8.0 | 0.00 | 0.22 | 0.01 | 62 | 1019.6 |
| 20260902095803 | 67 | 247 | 7.0 | 10.0 | 0.00 | 0.22 | 0.01 | 61 | 1019.6 |
| 20260902095306 | 67 | 237 | 8.0 | 9.0 | 0.00 | 0.22 | 0.01 | 62 | 1019.6 |
| 20260902094802 | 67 | 252 | 5.0 | 7.0 | 0.00 | 0.22 | 0.01 | 65 | 1019.6 |
| 20260902094203 | 67 | 232 | 6.0 | 7.0 | 0.00 | 0.22 | 0.01 | 65 | 1019.6 |
| 20260902093704 | 67 | 234 | 4.0 | 10.0 | 0.00 | 0.22 | 0.01 | 63 | 1019.6 |
| 20260902093203 | 68 | 244 | 7.0 | 10.0 | 0.00 | 0.22 | 0.01 | 62 | 1019.6 |
| 20260902092603 | 67 | 226 | 2.0 | 6.0 | 0.00 | 0.22 | 0.01 | 69 | 1019.6 |
| 20260902092103 | 67 | 252 | 2.0 | 7.0 | 0.00 | 0.22 | 0.01 | 70 | 1019.6 |
| 20260902091603 | 66 | 208 | 6.0 | 10.0 | 0.00 | 0.22 | 0.01 | 71 | 1019.6 |
| 20260902091102 | 66 | 256 | 4.0 | 8.0 | 0.00 | 0.22 | 0.01 | 73 | 1019.6 |
| 20260902090603 | 66 | 203 | 8.0 | 10.0 | 0.00 | 0.22 | 0.01 | 72 | 1019.6 |
| 20260902090005 | 65 | 193 | 6.0 | 8.0 | 0.00 | 0.22 | 0.01 | 73 | 1019.6 |
| 20260902085504 | 65 | 222 | 8.0 | 9.0 | 0.00 | 0.22 | 0.01 | 75 | 1020.0 |
| 20260902084902 | 64 | 218 | 7.0 | 9.0 | 0.00 | 0.22 | 0.01 | 76 | 1020.0 |
| 20260902084402 | 64 | 194 | 5.0 | 7.0 | 0.00 | 0.22 | 0.01 | 75 | 1020.0 |
| 20260902083803 | 63 | 208 | 4.0 | 8.0 | 0.00 | 0.22 | 0.01 | 76 | 1020.0 |
| 20260902083303 | 63 | 221 | 6.0 | 8.0 | 0.00 | 0.22 | 0.01 | 76 | 1020.0 |
| 20260902082703 | 63 | 170 | 3.0 | 7.0 | 0.00 | 0.22 | 0.01 | 78 | 1020.0 |
| 20260902082203 | 63 | 200 | 4.0 | 7.0 | 0.00 | 0.22 | 0.01 | 77 | 1020.0 |
| 20260902081703 | 62 | 205 | 4.0 | 6.0 | 0.00 | 0.22 | 0.01 | 77 | 1020.0 |
| 20260902081103 | 62 | 184 | 5.0 | 6.0 | 0.00 | 0.22 | 0.01 | 80 | 1020.0 |
| 20260902080603 | 61 | 161 | 3.0 | 6.0 | 0.00 | 0.22 | 0.01 | 83 | 1020.0 |
| 20260902075403 | 61 | 195 | 1.0 | 3.0 | 0.00 | 0.22 | 0.01 | 86 | 1020.0 |
| 20260902074902 | 60 | 183 | 2.0 | 3.0 | 0.00 | 0.22 | 0.01 | 85 | 1020.0 |
| 20260902074402 | 60 | 169 | 3.0 | 3.0 | 0.00 | 0.22 | 0.01 | 86 | 1019.6 |
| 20260902073803 | 60 | 158 | 2.0 | 2.0 | 0.00 | 0.22 | 0.01 | 86 | 1020.0 |
| 20260902073302 | 60 | 153 | 2.0 | 3.0 | 0.00 | 0.22 | 0.01 | 87 | 1019.6 |
| 20260902072803 | 59 | 164 | 2.0 | 3.0 | 0.00 | 0.22 | 0.01 | 87 | 1020.0 |
| 20260902072308 | 60 | 185 | 1.0 | 2.0 | 0.00 | 0.22 | 0.01 | 87 | 1020.0 |
| 20260902071803 | 60 | 198 | 3.0 | 5.0 | 0.00 | 0.22 | 0.01 | 87 | 1020.0 |
| 20260902071303 | 60 | 175 | 3.0 | 5.0 | 0.00 | 0.22 | 0.01 | 88 | 1020.0 |
| 20260902070803 | 59 | 165 | 3.0 | 3.0 | 0.00 | 0.22 | 0.01 | 90 | 1019.6 |
| 20260902070303 | 59 | 182 | 2.0 | 2.0 | 0.00 | 0.22 | 0.01 | 91 | 1020.0 |
| 20260902065803 | 58 | 194 | 3.0 | 5.0 | 0.00 | 0.22 | 0.01 | 91 | 1020.0 |
| 20260902065203 | 59 | 209 | 2.0 | 3.0 | 0.00 | 0.22 | 0.01 | 92 | 1020.0 |
| 20260902064704 | 58 | 182 | 3.0 | 3.0 | 0.00 | 0.22 | 0.01 | 93 | 1020.0 |
| 20260902064202 | 58 | 170 | 2.0 | 5.0 | 0.00 | 0.22 | 0.01 | 93 | 1020.0 |
| 20260902063603 | 57 | 155 | 3.0 | 5.0 | 0.00 | 0.22 | 0.01 | 94 | 1020.0 |
| 20260902063102 | 57 | 163 | 3.0 | 3.0 | 0.00 | 0.22 | 0.01 | 95 | 1020.0 |
| 20260902062602 | 56 | 208 | 2.0 | 3.0 | 0.00 | 0.22 | 0.01 | 95 | 1020.0 |
| 20260902062102 | 56 | 171 | 2.0 | 3.0 | 0.00 | 0.22 | 0.01 | 95 | 1020.0 |
| 20260902061102 | 55 | 177 | 3.0 | 5.0 | 0.00 | 0.22 | 0.01 | 95 | 1020.0 |
| 20260902060603 | 55 | 154 | 4.0 | 5.0 | 0.00 | 0.22 | 0.01 | 96 | 1020.0 |
| 20260902055603 | 54 | 146 | 2.0 | 3.0 | 0.00 | 0.22 | 0.01 | 96 | 1020.3 |
| 20260902055003 | 54 | 147 | 2.0 | 3.0 | 0.00 | 0.22 | 0.01 | 96 | 1020.0 |
| 20260902054502 | 54 | 224 | 2.0 | 2.0 | 0.00 | 0.22 | 0.01 | 96 | 1020.3 |
| 20260902053903 | 54 | 226 | 0.0 | 1.0 | 0.00 | 0.22 | 0.01 | 95 | 1020.3 |
| 20260902053402 | 54 | 226 | 0.0 | 0.0 | 0.00 | 0.22 | 0.01 | 96 | 1020.0 |
| 20260902052902 | 54 | 226 | 0.0 | 0.0 | 0.00 | 0.22 | 0.01 | 96 | 1020.3 |
| 20260902052306 | 54 | 226 | 0.0 | 0.0 | 0.00 | 0.22 | 0.01 | 96 | 1020.0 |
| 20260902051803 | 53 | 226 | 0.0 | 0.0 | 0.00 | 0.22 | 0.01 | 96 | 1020.0 |
| 20260902051302 | 53 | 226 | 0.0 | 0.0 | 0.00 | 0.22 | 0.01 | 95 | 1020.0 |
| 20260902050802 | 53 | 226 | 0.0 | 0.0 | 0.00 | 0.22 | 0.01 | 95 | 1020.3 |
| 20260902050303 | 53 | 226 | 0.0 | 0.0 | 0.00 | 0.22 | 0.01 | 95 | 1020.0 |
| 20260902045803 | 53 | 226 | 0.0 | 0.0 | 0.00 | 0.22 | 0.01 | 95 | 1020.0 |
| 20260902045306 | 53 | 226 | 0.0 | 0.0 | 0.00 | 0.22 | 0.01 | 96 | 1020.0 |
| 20260902044703 | 53 | 226 | 0.0 | 0.0 | 0.00 | 0.22 | 0.01 | 95 | 1020.0 |
| 20260902044202 | 53 | 226 | 0.0 | 0.0 | 0.00 | 0.22 | 0.01 | 95 | 1020.0 |
| 20260902043703 | 54 | 226 | 0.0 | 0.0 | 0.00 | 0.22 | 0.01 | 95 | 1020.0 |
| 20260902043203 | 53 | 226 | 1.0 | 1.0 | 0.00 | 0.22 | 0.01 | 95 | 1020.3 |
| 20260902042704 | 53 | 226 | 1.0 | 2.0 | 0.00 | 0.22 | 0.01 | 95 | 1020.3 |
| 20260902042202 | 53 | 227 | 2.0 | 2.0 | 0.00 | 0.22 | 0.01 | 95 | 1020.3 |
| 20260902041702 | 53 | 227 | 2.0 | 2.0 | 0.00 | 0.22 | 0.01 | 95 | 1020.3 |
| 20260902041202 | 53 | 227 | 2.0 | 2.0 | 0.00 | 0.22 | 0.01 | 95 | 1020.7 |
| 20260902040702 | 53 | 227 | 2.0 | 2.0 | 0.00 | 0.22 | 0.01 | 95 | 1020.3 |
| 20260902040103 | 53 | 226 | 3.0 | 3.0 | 0.00 | 0.22 | 0.01 | 95 | 1020.3 |
| 20260902035603 | 53 | 223 | 3.0 | 3.0 | 0.00 | 0.22 | 0.01 | 95 | 1020.3 |
| 20260902035103 | 53 | 244 | 2.0 | 3.0 | 0.00 | 0.22 | 0.01 | 95 | 1020.3 |
| 20260902034003 | 53 | 254 | 2.0 | 3.0 | 0.00 | 0.22 | 0.01 | 95 | 1020.3 |
| 20260902033403 | 53 | 256 | 3.0 | 5.0 | 0.00 | 0.22 | 0.01 | 95 | 1020.3 |
| 20260902032902 | 52 | 253 | 3.0 | 3.0 | 0.00 | 0.22 | 0.01 | 95 | 1020.3 |
| 20260902032402 | 52 | 215 | 0.0 | 0.0 | 0.00 | 0.22 | 0.01 | 94 | 1020.0 |
| 20260902031903 | 52 | 215 | 1.0 | 1.0 | 0.00 | 0.22 | 0.01 | 95 | 1019.6 |
| 20260902031402 | 52 | 215 | 0.0 | 0.0 | 0.00 | 0.22 | 0.01 | 94 | 1019.6 |
| 20260902030902 | 53 | 214 | 0.0 | 0.0 | 0.00 | 0.22 | 0.01 | 94 | 1020.0 |
| 20260902030403 | 53 | 214 | 1.0 | 2.0 | 0.00 | 0.22 | 0.01 | 94 | 1020.0 |
| 20260902025903 | 53 | 214 | 2.0 | 2.0 | 0.00 | 0.22 | 0.01 | 94 | 1020.0 |
| 20260902025306 | 53 | 214 | 1.0 | 2.0 | 0.00 | 0.22 | 0.01 | 94 | 1019.6 |
| 20260902024802 | 54 | 214 | 1.0 | 2.0 | 0.00 | 0.22 | 0.01 | 94 | 1019.6 |
| 20260902024302 | 54 | 214 | 1.0 | 1.0 | 0.00 | 0.22 | 0.01 | 94 | 1019.6 |
| 20260902023802 | 53 | 214 | 1.0 | 2.0 | 0.00 | 0.22 | 0.01 | 94 | 1019.6 |
| 20260902023202 | 54 | 214 | 1.0 | 2.0 | 0.01 | 0.22 | 0.01 | 94 | 1019.6 |
| 20260902022703 | 54 | 222 | 1.0 | 2.0 | 0.01 | 0.22 | 0.01 | 94 | 1019.6 |
| 20260902022104 | 54 | 223 | 1.0 | 2.0 | 0.01 | 0.22 | 0.01 | 94 | 1019.6 |
| 20260902021603 | 54 | 225 | 0.0 | 1.0 | 0.01 | 0.22 | 0.01 | 93 | 1019.6 |
| 20260902021103 | 54 | 225 | 2.0 | 2.0 | 0.01 | 0.22 | 0.01 | 93 | 1020.0 |
| 20260902020603 | 54 | 226 | 0.0 | 0.0 | 0.01 | 0.22 | 0.01 | 93 | 1019.6 |
| 20260902020103 | 54 | 226 | 0.0 | 0.0 | 0.01 | 0.22 | 0.01 | 93 | 1019.6 |
| 20260902015504 | 54 | 226 | 0.0 | 0.0 | 0.01 | 0.22 | 0.01 | 92 | 1019.6 |
| 20260902015003 | 55 | 225 | 0.0 | 1.0 | 0.01 | 0.22 | 0.01 | 92 | 1020.0 |
| 20260902014403 | 55 | 225 | 1.0 | 2.0 | 0.01 | 0.22 | 0.01 | 93 | 1019.6 |
| 20260902013903 | 55 | 228 | 2.0 | 2.0 | 0.01 | 0.22 | 0.01 | 92 | 1020.0 |
| 20260902013302 | 55 | 228 | 3.0 | 3.0 | 0.00 | 0.21 | 0.00 | 92 | 1020.3 |
| 20260902012803 | 55 | 232 | 3.0 | 3.0 | 0.00 | 0.21 | 0.00 | 91 | 1020.0 |
| 20260902012308 | 55 | 246 | 2.0 | 2.0 | 0.00 | 0.21 | 0.00 | 91 | 1019.6 |
| 20260902011703 | 56 | 249 | 3.0 | 3.0 | 0.00 | 0.21 | 0.00 | 91 | 1019.6 |
| 20260902011202 | 56 | 248 | 2.0 | 3.0 | 0.00 | 0.21 | 0.00 | 90 | 1019.6 |
| 20260902010603 | 57 | 256 | 3.0 | 3.0 | 0.00 | 0.21 | 0.00 | 90 | 1019.6 |
| 20260902005603 | 57 | 267 | 3.0 | 3.0 | 0.00 | 0.21 | 0.00 | 90 | 1019.6 |
| 20260902005103 | 57 | 274 | 3.0 | 5.0 | 0.00 | 0.21 | 0.00 | 90 | 1019.6 |
| 20260902004602 | 57 | 281 | 4.0 | 6.0 | 0.00 | 0.21 | 0.00 | 90 | 1019.6 |
| 20260902004102 | 57 | 279 | 3.0 | 5.0 | 0.00 | 0.21 | 0.00 | 90 | 1019.6 |
| 20260902003603 | 57 | 271 | 3.0 | 5.0 | 0.00 | 0.21 | 0.00 | 90 | 1020.0 |
| 20260902003102 | 57 | 264 | 3.0 | 3.0 | 0.00 | 0.21 | 0.00 | 89 | 1020.0 |
| 20260902002502 | 57 | 258 | 4.0 | 6.0 | 0.00 | 0.21 | 0.00 | 89 | 1019.6 |
| 20260902002003 | 58 | 256 | 4.0 | 5.0 | 0.00 | 0.21 | 0.00 | 89 | 1019.6 |
| 20260902001504 | 57 | 264 | 5.0 | 6.0 | 0.00 | 0.21 | 0.00 | 90 | 1020.0 |
| 20260902001004 | 57 | 243 | 3.0 | 3.0 | 0.00 | 0.21 | 0.00 | 90 | 1019.6 |
| 20260902000403 | 57 | 232 | 3.0 | 6.0 | 0.00 | 0.21 | 0.00 | 90 | 1019.6 |
| 20260901235902 | 57 | 239 | 4.0 | 6.0 | 0.00 | 0.21 | 0.00 | 91 | 1019.6 |
| 20260901235307 | 57 | 242 | 3.0 | 3.0 | 0.00 | 0.21 | 0.00 | 90 | 1019.6 |
| 20260901234703 | 57 | 250 | 3.0 | 5.0 | 0.00 | 0.21 | 0.00 | 91 | 1019.6 |
| 20260901234202 | 57 | 244 | 3.0 | 3.0 | 0.00 | 0.21 | 0.00 | 90 | 1019.3 |
| 20260901233704 | 57 | 244 | 1.0 | 3.0 | 0.00 | 0.21 | 0.00 | 90 | 1019.3 |
| 20260901233203 | 57 | 240 | 2.0 | 3.0 | 0.00 | 0.21 | 0.00 | 89 | 1019.3 |
| 20260901232702 | 57 | 240 | 3.0 | 3.0 | 0.00 | 0.21 | 0.00 | 89 | 1019.3 |
| 20260901232103 | 57 | 235 | 3.0 | 3.0 | 0.00 | 0.21 | 0.00 | 88 | 1019.6 |
| 20260901231402 | 58 | 242 | 2.0 | 3.0 | 0.00 | 0.21 | 0.00 | 88 | 1019.6 |
| 20260901230902 | 58 | 254 | 2.0 | 5.0 | 0.00 | 0.21 | 0.00 | 87 | 1019.3 |
| 20260901230402 | 59 | 249 | 3.0 | 5.0 | 0.00 | 0.21 | 0.00 | 86 | 1019.3 |
| 20260901225903 | 59 | 256 | 4.0 | 5.0 | 0.00 | 0.21 | 0.00 | 86 | 1019.6 |
| 20260901225306 | 59 | 269 | 4.0 | 6.0 | 0.00 | 0.21 | 0.00 | 86 | 1019.6 |
| 20260901224803 | 60 | 268 | 4.0 | 5.0 | 0.00 | 0.21 | 0.00 | 85 | 1019.3 |
| 20260901224203 | 60 | 261 | 5.0 | 7.0 | 0.00 | 0.21 | 0.00 | 85 | 1019.3 |
| 20260901223702 | 60 | 269 | 3.0 | 5.0 | 0.00 | 0.21 | 0.00 | 85 | 1019.3 |
| 20260901223202 | 60 | 265 | 3.0 | 3.0 | 0.00 | 0.21 | 0.00 | 85 | 1019.3 |
| 20260901222703 | 59 | 253 | 3.0 | 6.0 | 0.00 | 0.21 | 0.00 | 86 | 1019.6 |
| 20260901222203 | 60 | 252 | 3.0 | 6.0 | 0.00 | 0.21 | 0.00 | 86 | 1019.3 |
| 20260901221603 | 60 | 241 | 4.0 | 5.0 | 0.00 | 0.21 | 0.00 | 86 | 1019.6 |
| 20260901221103 | 60 | 255 | 4.0 | 6.0 | 0.00 | 0.21 | 0.00 | 87 | 1019.3 |
| 20260901220603 | 60 | 262 | 4.0 | 5.0 | 0.00 | 0.21 | 0.00 | 87 | 1019.6 |
| 20260901215603 | 59 | 253 | 4.0 | 6.0 | 0.00 | 0.21 | 0.21 | 89 | 1019.3 |
| 20260901215004 | 59 | 245 | 4.0 | 6.0 | 0.00 | 0.21 | 0.21 | 90 | 1019.6 |
| 20260901214504 | 59 | 266 | 1.0 | 7.0 | 0.00 | 0.21 | 0.21 | 89 | 1019.3 |
| 20260901214004 | 60 | 234 | 3.0 | 5.0 | 0.00 | 0.21 | 0.21 | 90 | 1019.3 |
| 20260901213403 | 60 | 234 | 4.0 | 5.0 | 0.00 | 0.21 | 0.21 | 90 | 1019.3 |
| 20260901212902 | 59 | 221 | 3.0 | 5.0 | 0.00 | 0.21 | 0.21 | 89 | 1019.0 |
| 20260901212306 | 60 | 234 | 2.0 | 2.0 | 0.00 | 0.21 | 0.21 | 88 | 1019.0 |
| 20260901211803 | 60 | 249 | 3.0 | 3.0 | 0.00 | 0.21 | 0.21 | 88 | 1019.0 |
| 20260901211203 | 60 | 255 | 3.0 | 3.0 | 0.00 | 0.21 | 0.21 | 87 | 1019.3 |
| 20260901210703 | 61 | 239 | 3.0 | 5.0 | 0.00 | 0.21 | 0.21 | 87 | 1019.0 |
| 20260901210202 | 60 | 231 | 4.0 | 5.0 | 0.00 | 0.21 | 0.21 | 86 | 1019.3 |
| 20260901205702 | 61 | 232 | 3.0 | 5.0 | 0.00 | 0.21 | 0.21 | 85 | 1019.3 |
| 20260901205203 | 61 | 237 | 3.0 | 3.0 | 0.00 | 0.21 | 0.21 | 84 | 1019.3 |
| 20260901204603 | 62 | 239 | 3.0 | 5.0 | 0.00 | 0.21 | 0.21 | 81 | 1019.3 |
| 20260901204005 | 62 | 264 | 5.0 | 6.0 | 0.00 | 0.21 | 0.21 | 80 | 1019.0 |
| 20260901203504 | 62 | 271 | 4.0 | 6.0 | 0.00 | 0.21 | 0.21 | 80 | 1019.0 |
| 20260901202904 | 62 | 271 | 6.0 | 8.0 | 0.00 | 0.21 | 0.21 | 80 | 1019.3 |
| 20260901202403 | 62 | 259 | 5.0 | 7.0 | 0.00 | 0.21 | 0.21 | 80 | 1019.3 |
| 20260901201903 | 62 | 261 | 5.0 | 7.0 | 0.00 | 0.21 | 0.21 | 80 | 1019.0 |
| 20260901201403 | 62 | 259 | 5.0 | 6.0 | 0.00 | 0.21 | 0.21 | 81 | 1019.0 |
| 20260901200803 | 62 | 262 | 5.0 | 6.0 | 0.00 | 0.21 | 0.21 | 83 | 1019.0 |
| 20260901200303 | 62 | 258 | 4.0 | 5.0 | 0.00 | 0.21 | 0.21 | 82 | 1019.0 |
| 20260901195803 | 62 | 255 | 4.0 | 6.0 | 0.00 | 0.21 | 0.21 | 82 | 1019.0 |
| 20260901195306 | 62 | 262 | 5.0 | 7.0 | 0.00 | 0.21 | 0.21 | 81 | 1018.6 |
| 20260901194804 | 63 | 256 | 6.0 | 7.0 | 0.00 | 0.21 | 0.21 | 81 | 1019.0 |
| 20260901194304 | 63 | 260 | 5.0 | 6.0 | 0.00 | 0.21 | 0.21 | 80 | 1019.0 |
| 20260901193804 | 63 | 259 | 5.0 | 6.0 | 0.00 | 0.21 | 0.21 | 82 | 1019.0 |
| 20260901193304 | 63 | 240 | 4.0 | 6.0 | 0.00 | 0.21 | 0.21 | 82 | 1019.0 |
| 20260901192803 | 63 | 248 | 4.0 | 5.0 | 0.00 | 0.21 | 0.21 | 81 | 1019.0 |
| 20260901192306 | 63 | 254 | 5.0 | 6.0 | 0.00 | 0.21 | 0.21 | 81 | 1019.0 |
| 20260901191803 | 63 | 253 | 5.0 | 6.0 | 0.00 | 0.21 | 0.21 | 80 | 1019.0 |
| 20260901191303 | 63 | 276 | 5.0 | 7.0 | 0.00 | 0.21 | 0.21 | 80 | 1018.6 |
| 20260901190802 | 63 | 267 | 5.0 | 7.0 | 0.00 | 0.21 | 0.21 | 81 | 1018.6 |
| 20260901190303 | 63 | 255 | 4.0 | 6.0 | 0.00 | 0.21 | 0.21 | 84 | 1018.6 |
| 20260901185705 | 62 | 266 | 6.0 | 7.0 | 0.00 | 0.21 | 0.21 | 86 | 1018.6 |
| 20260901184702 | 62 | 254 | 3.0 | 3.0 | 0.00 | 0.21 | 0.21 | 88 | 1018.6 |
| 20260901184203 | 62 | 237 | 4.0 | 5.0 | 0.00 | 0.21 | 0.21 | 88 | 1018.6 |
| 20260901183703 | 62 | 235 | 3.0 | 7.0 | 0.00 | 0.21 | 0.21 | 88 | 1018.3 |
| 20260901183102 | 62 | 258 | 4.0 | 6.0 | 0.00 | 0.21 | 0.21 | 88 | 1018.3 |
| 20260901182504 | 62 | 246 | 5.0 | 8.0 | 0.00 | 0.21 | 0.21 | 89 | 1018.3 |
| 20260901181502 | 61 | 255 | 2.0 | 3.0 | 0.00 | 0.21 | 0.21 | 89 | 1018.3 |
| 20260901181003 | 62 | 238 | 2.0 | 3.0 | 0.03 | 0.21 | 0.21 | 89 | 1018.3 |
| 20260901180403 | 62 | 231 | 3.0 | 3.0 | 0.06 | 0.21 | 0.21 | 88 | 1018.6 |
| 20260901175803 | 62 | 239 | 4.0 | 6.0 | 0.08 | 0.26 | 0.21 | 87 | 1017.9 |
| 20260901175305 | 62 | 248 | 3.0 | 5.0 | 0.16 | 0.26 | 0.21 | 86 | 1017.9 |
| 20260901174705 | 62 | 249 | 5.0 | 6.0 | 0.18 | 0.26 | 0.21 | 85 | 1017.9 |
| 20260901174204 | 62 | 256 | 7.0 | 8.0 | 0.21 | 0.26 | 0.21 | 84 | 1017.9 |
| 20260901173603 | 61 | 264 | 6.0 | 7.0 | 0.21 | 0.26 | 0.21 | 87 | 1018.3 |
| 20260901173102 | 61 | 224 | 1.0 | 2.0 | 0.21 | 0.26 | 0.21 | 87 | 1018.3 |
| 20260901172603 | 61 | 206 | 0.0 | 0.0 | 0.21 | 0.26 | 0.21 | 87 | 1017.9 |
| 20260901172102 | 61 | 205 | 1.0 | 3.0 | 0.21 | 0.26 | 0.21 | 86 | 1017.9 |
| 20260901171504 | 61 | 226 | 6.0 | 7.0 | 0.21 | 0.26 | 0.21 | 86 | 1017.9 |
| 20260901171004 | 62 | 269 | 6.0 | 7.0 | 0.17 | 0.22 | 0.17 | 86 | 1017.9 |
| 20260901170004 | 63 | 253 | 8.0 | 11.0 | 0.10 | 0.15 | 0.10 | 84 | 1018.6 |
| 20260901165502 | 64 | 249 | 12.0 | 18.0 | 0.05 | 0.10 | 0.05 | 80 | 1017.9 |
| 20260901165003 | 71 | 262 | 16.0 | 25.0 | 0.00 | 0.05 | 0.00 | 65 | 1017.9 |
| 20260901164403 | 71 | 299 | 13.0 | 15.0 | 0.00 | 0.05 | 0.00 | 54 | 1017.3 |
| 20260901163903 | 72 | 276 | 11.0 | 15.0 | 0.00 | 0.05 | 0.00 | 54 | 1017.3 |
| 20260901163403 | 72 | 288 | 9.0 | 13.0 | 0.00 | 0.05 | 0.00 | 53 | 1017.3 |
| 20260901162903 | 72 | 273 | 6.0 | 8.0 | 0.00 | 0.05 | 0.00 | 53 | 1017.3 |
| 20260901162403 | 72 | 281 | 7.0 | 8.0 | 0.00 | 0.05 | 0.00 | 52 | 1017.3 |
| 20260901161803 | 72 | 269 | 9.0 | 10.0 | 0.00 | 0.05 | 0.00 | 52 | 1017.3 |
| 20260901161303 | 73 | 280 | 7.0 | 10.0 | 0.00 | 0.05 | 0.00 | 52 | 1017.3 |
| 20260901160803 | 73 | 276 | 10.0 | 17.0 | 0.00 | 0.05 | 0.00 | 49 | 1016.9 |
| 20260901160303 | 74 | 273 | 7.0 | 9.0 | 0.00 | 0.05 | 0.00 | 49 | 1016.9 |
| 20260901155704 | 73 | 262 | 6.0 | 11.0 | 0.00 | 0.05 | 0.00 | 50 | 1016.9 |
| 20260901155203 | 73 | 261 | 10.0 | 13.0 | 0.00 | 0.05 | 0.00 | 49 | 1016.9 |
| 20260901154703 | 73 | 277 | 13.0 | 14.0 | 0.00 | 0.05 | 0.00 | 48 | 1016.9 |
| 20260901154202 | 74 | 266 | 12.0 | 18.0 | 0.00 | 0.05 | 0.00 | 48 | 1016.9 |
| 20260901153604 | 74 | 272 | 7.0 | 10.0 | 0.00 | 0.05 | 0.00 | 49 | 1016.9 |
| 20260901153104 | 74 | 283 | 7.0 | 11.0 | 0.00 | 0.05 | 0.00 | 48 | 1016.9 |
| 20260901152603 | 73 | 268 | 9.0 | 10.0 | 0.00 | 0.05 | 0.00 | 48 | 1016.6 |
| 20260901152103 | 73 | 280 | 10.0 | 15.0 | 0.00 | 0.05 | 0.00 | 49 | 1016.9 |
| 20260901151603 | 74 | 268 | 9.0 | 11.0 | 0.00 | 0.05 | 0.00 | 50 | 1016.9 |
| 20260901150903 | 74 | 298 | 6.0 | 10.0 | 0.00 | 0.05 | 0.00 | 49 | 1016.9 |
| 20260901150404 | 73 | 294 | 11.0 | 14.0 | 0.00 | 0.05 | 0.00 | 50 | 1016.9 |
| 20260901145903 | 75 | 278 | 11.0 | 16.0 | 0.00 | 0.15 | 0.00 | 48 | 1016.6 |
| 20260901145306 | 74 | 288 | 5.0 | 10.0 | 0.00 | 0.15 | 0.00 | 49 | 1016.9 |
| 20260901144803 | 73 | 292 | 7.0 | 13.0 | 0.00 | 0.15 | 0.00 | 48 | 1016.9 |
| 20260901144303 | 74 | 273 | 9.0 | 13.0 | 0.00 | 0.15 | 0.00 | 48 | 1016.9 |
| 20260901143802 | 74 | 274 | 11.0 | 13.0 | 0.00 | 0.15 | 0.00 | 47 | 1016.9 |
| 20260901143203 | 74 | 280 | 14.0 | 16.0 | 0.00 | 0.15 | 0.00 | 48 | 1016.6 |
| 20260901142604 | 75 | 268 | 8.0 | 14.0 | 0.00 | 0.15 | 0.00 | 48 | 1016.6 |
| 20260901142103 | 74 | 245 | 11.0 | 16.0 | 0.00 | 0.15 | 0.00 | 47 | 1016.9 |
| 20260901141007 | 74 | 261 | 16.0 | 20.0 | 0.00 | 0.15 | 0.00 | 47 | 1016.9 |
| 20260901140506 | 74 | 269 | 11.0 | 16.0 | 0.00 | 0.15 | 0.00 | 45 | 1016.9 |
| 20260901135003 | 74 | 256 | 9.0 | 14.0 | 0.00 | 0.15 | 0.00 | 47 | 1017.3 |
| 20260901134503 | 74 | 251 | 8.0 | 14.0 | 0.00 | 0.15 | 0.00 | 48 | 1016.9 |
| 20260901133902 | 73 | 264 | 14.0 | 18.0 | 0.00 | 0.15 | 0.00 | 48 | 1016.9 |
| 20260901133402 | 75 | 253 | 12.0 | 21.0 | 0.00 | 0.15 | 0.00 | 49 | 1016.9 |
| 20260901132903 | 74 | 268 | 12.0 | 16.0 | 0.00 | 0.15 | 0.00 | 50 | 1016.9 |
| 20260901132306 | 73 | 283 | 11.0 | 13.0 | 0.00 | 0.15 | 0.00 | 51 | 1016.9 |
| 20260901131802 | 73 | 300 | 10.0 | 13.0 | 0.00 | 0.15 | 0.00 | 51 | 1016.9 |
| 20260901131303 | 72 | 295 | 8.0 | 14.0 | 0.00 | 0.15 | 0.00 | 55 | 1017.3 |
| 20260901130802 | 73 | 296 | 9.0 | 13.0 | 0.00 | 0.15 | 0.00 | 53 | 1017.3 |
| 20260901130303 | 72 | 254 | 9.0 | 14.0 | 0.00 | 0.15 | 0.00 | 54 | 1017.3 |
| 20260901125803 | 72 | 292 | 11.0 | 14.0 | 0.00 | 0.15 | 0.00 | 53 | 1017.3 |
| 20260901125203 | 73 | 266 | 10.0 | 15.0 | 0.00 | 0.15 | 0.00 | 53 | 1017.3 |
| 20260901124605 | 72 | 297 | 11.0 | 13.0 | 0.00 | 0.15 | 0.00 | 53 | 1016.9 |
| 20260901123903 | 74 | 263 | 15.0 | 22.0 | 0.00 | 0.15 | 0.00 | 52 | 1017.3 |